Terug naar catalogus

BREEZE-M DEB

ActiefHEO
NORAD 32030·DEBRIS·🇷🇺 Russia

Gelanceerd Feb 28, 2006 vanaf Baikonur Cosmodrome

Loading…

Volgende Passages (komende 24 uur)

TLE

VersSource: Space-Track

Epoch: Sep 14, 2026, 12:17 UTC

1 32030U 06006H   26257.51191182  .00003841  00000-0  15189-2 0  9992
2 32030  51.7156 264.3397 4704491 104.7407 310.4100  6.02838953396484

Volg BREEZE-M DEB in realtime met AllMySat

Download on the App Store